Satellite: MO-46 Catalog number: 26548 Epoch time: 07339.58234668 Element set: 0965 Inclination: 064.5593 deg RA of node: 012.4069 deg Eccentricity: 0.0006023 Arg of perigee: 349.4314 deg Mean anomaly: 010.6685 deg Mean motion: 14.83204440 rev/day Decay rate: 1.48e-06 rev/day^2 Epoch rev: 38895 Checksum: 324
Satellite: GO-32 Catalog number: 25397 Epoch time: 07339.78124342 Element set: 0468 Inclination: 098.3933 deg RA of node: 019.2837 deg Eccentricity: 0.0002158 Arg of perigee: 090.3588 deg Mean anomaly: 269.7814 deg Mean motion: 14.23135106 rev/day Decay rate: 4.8e-07 rev/day^2 Epoch rev: 48856 Checksum: 333
Satellite: PO-28 Catalog number: 22829 Epoch time: 07340.79817132 Element set: 818 Inclination: 098.3377 deg RA of node: 305.5077 deg Eccentricity: 0.0010762 Arg of perigee: 082.1539 deg Mean anomaly: 278.0884 deg Mean motion: 14.30174151 rev/day Decay rate: 1.9e-07 rev/day^2 Epoch rev: 74048 Checksum: 318
Satellite: IO-26 Catalog number: 22826 Epoch time: 07340.57682193 Element set: 543 Inclination: 098.3505 deg RA of node: 304.1570 deg Eccentricity: 0.0009798 Arg of perigee: 107.0645 deg Mean anomaly: 253.1611 deg Mean motion: 14.29471800 rev/day Decay rate: 1.4e-07 rev/day^2 Epoch rev: 74020 Checksum: 285
Satellite: AO-27 Catalog number: 22825 Epoch time: 07339.85913534 Element set: 0843 Inclination: 098.3574 deg RA of node: 302.4705 deg Eccentricity: 0.0009181 Arg of perigee: 110.8462 deg Mean anomaly: 249.3711 deg Mean motion: 14.29224873 rev/day Decay rate: 9.7e-07 rev/day^2 Epoch rev: 74001 Checksum: 309
Satellite: LO-19 Catalog number: 20442 Epoch time: 07340.43426728 Element set: 120 Inclination: 098.1892 deg RA of node: 334.6804 deg Eccentricity: 0.0012600 Arg of perigee: 036.4811 deg Mean anomaly: 323.7238 deg Mean motion: 14.32017533 rev/day Decay rate: 4.5e-07 rev/day^2 Epoch rev: 93334 Checksum: 271
Satellite: AO-16 Catalog number: 20439 Epoch time: 07340.00530400 Element set: 196 Inclination: 098.2111 deg RA of node: 325.2229 deg Eccentricity: 0.0011808 Arg of perigee: 038.3311 deg Mean anomaly: 321.8719 deg Mean motion: 14.31777514 rev/day Decay rate: 3.0e-08 rev/day^2 Epoch rev: 93313 Checksum: 256
/EX SB KEPS @ AMSAT $ORB07340.W Orbital Elements 07340.WEATHER
HR AMSAT ORBITAL ELEMENTS FOR WEATHER SATELLITES FROM WA5QGD FORT WORTH,TX December 6, 2007 Send Subscribe/unsubscribe to KEPS at http://www.amsat.org/mailman/listinfo/keps BID: ORB07340.W TO ALL RADIO AMATEURS BT
Satellite: NOAA-18 Catalog number: 28654 Epoch time: 07340.76878342 Element set: 224 Inclination: 098.8477 deg RA of node: 279.2903 deg Eccentricity: 0.0014838 Arg of perigee: 137.7677 deg Mean anomaly: 222.4668 deg Mean motion: 14.11115788 rev/day Decay rate: -2.5e-07 rev/day^2 Epoch rev: 13119 Checksum: 339
Satellite: NOAA-17 Catalog number: 27453 Epoch time: 07340.39702320 Element set: 707 Inclination: 098.5627 deg RA of node: 045.4034 deg Eccentricity: 0.0011048 Arg of perigee: 316.2996 deg Mean anomaly: 043.7318 deg Mean motion: 14.23929818 rev/day Decay rate: -3.7e-07 rev/day^2 Epoch rev: 28322 Checksum: 302
Satellite: NOAA-16 Catalog number: 26536 Epoch time: 07340.18479341 Element set: 711 Inclination: 099.1393 deg RA of node: 320.3041 deg Eccentricity: 0.0011301 Arg of perigee: 053.1045 deg Mean anomaly: 307.1157 deg Mean motion: 14.12459851 rev/day Decay rate: -2.12e-06 rev/day^2 Epoch rev: 37138 Checksum: 262
Satellite: OKEAN-0 Catalog number: 25860 Epoch time: 07339.63216394 Element set: 0229 Inclination: 097.7384 deg RA of node: 333.9461 deg Eccentricity: 0.0001181 Arg of perigee: 108.1347 deg Mean anomaly: 251.9989 deg Mean motion: 14.73488811 rev/day Decay rate: 4.3e-07 rev/day^2 Epoch rev: 45074 Checksum: 318
Satellite: FENGYUN1 Catalog number: 25730 Epoch time: 07339.94350453 Element set: 0289 Inclination: 098.7073 deg RA of node: 317.4576 deg Eccentricity: 0.0021008 Arg of perigee: 358.3271 deg Mean anomaly: 001.7825 deg Mean motion: 14.07644770 rev/day Decay rate: -1.6e-07 rev/day^2 Epoch rev: 44163 Checksum: 298
Satellite: RESURS Catalog number: 25394 Epoch time: 07340.48019625 Element set: 801 Inclination: 098.4152 deg RA of node: 027.9810 deg Eccentricity: 0.0002400 Arg of perigee: 053.5474 deg Mean anomaly: 306.5927 deg Mean motion: 14.24149872 rev/day Decay rate: -2.3e-07 rev/day^2 Epoch rev: 48887 Checksum: 296
Satellite: NOAA-15 Catalog number: 25338 Epoch time: 07340.31027775 Element set: 266 Inclination: 098.5432 deg RA of node: 332.2443 deg Eccentricity: 0.0009694 Arg of perigee: 245.6828 deg Mean anomaly: 114.3377 deg Mean motion: 14.24675573 rev/day Decay rate: 9.4e-07 rev/day^2 Epoch rev: 49719 Checksum: 326
Satellite: SICH-1 Catalog number: 23657 Epoch time: 07340.11090822 Element set: 243 Inclination: 082.5275 deg RA of node: 277.0903 deg Eccentricity: 0.0025510 Arg of perigee: 040.9807 deg Mean anomaly: 319.3262 deg Mean motion: 14.81530866 rev/day Decay rate: 3.3e-07 rev/day^2 Epoch rev: 66148 Checksum: 278
Satellite: NOAA-14 Catalog number: 23455 Epoch time: 07340.41514466 Element set: 925 Inclination: 098.9720 deg RA of node: 047.3471 deg Eccentricity: 0.0009004 Arg of perigee: 337.9360 deg Mean anomaly: 022.1433 deg Mean motion: 14.13729147 rev/day Decay rate: -2.29e-06 rev/day^2 Epoch rev: 66697 Checksum: 302
Satellite: OKEAN-4 Catalog number: 23317 Epoch time: 07339.74950516 Element set: 0443 Inclination: 082.5373 deg RA of node: 136.4902 deg Eccentricity: 0.0023567 Arg of perigee: 050.5415 deg Mean anomaly: 309.7876 deg Mean motion: 14.82556774 rev/day Decay rate: 2.54e-06 rev/day^2 Epoch rev: 70947 Checksum: 323
Satellite: MET-2/21 Catalog number: 22782 Epoch time: 07340.11709808 Element set: 3 Inclination: 082.5467 deg RA of node: 265.5107 deg Eccentricity: 0.0023917 Arg of perigee: 112.5341 deg Mean anomaly: 247.8361 deg Mean motion: 13.83622047 rev/day Decay rate: 1.6e-07 rev/day^2 Epoch rev: 72029 Checksum: 279
Satellite: MET-3/5 Catalog number: 21655 Epoch time: 07339.93948895 Element set: 0377 Inclination: 082.5558 deg RA of node: 241.5880 deg Eccentricity: 0.0014034 Arg of perigee: 134.5045 deg Mean anomaly: 225.7229 deg Mean motion: 13.17012343 rev/day Decay rate: 5.1e-07 rev/day^2 Epoch rev: 78401 Checksum: 307
Satellite: NOAA-12 Catalog number: 21263 Epoch time: 07340.33858123 Element set: 454 Inclination: 098.7619 deg RA of node: 337.3715 deg Eccentricity: 0.0012044 Arg of perigee: 332.3814 deg Mean anomaly: 027.6747 deg Mean motion: 14.25505326 rev/day Decay rate: -8.6e-07 rev/day^2 Epoch rev: 86077 Checksum: 301
Satellite: NOAA-11 Catalog number: 19531 Epoch time: 07340.18925645 Element set: 948 Inclination: 098.8072 deg RA of node: 067.1743 deg Eccentricity: 0.0010764 Arg of perigee: 262.1282 deg Mean anomaly: 097.8670 deg Mean motion: 14.14856798 rev/day Decay rate: -1.69e-06 rev/day^2 Epoch rev: 99047 Checksum: 345
Satellite: NOAA-10 Catalog number: 16969 Epoch time: 07340.46971406 Element set: 918 Inclination: 098.7380 deg RA of node: 357.6887 deg Eccentricity: 0.0012831 Arg of perigee: 029.4293 deg Mean anomaly: 330.7615 deg Mean motion: 14.27342755 rev/day Decay rate: -6.7e-07 rev/day^2 Epoch rev: 10380 Checksum: 326
Satellite: NOAA-10 Catalog number: 16969 Epoch time: 07340.46971406 Element set: 918 Inclination: 098.7380 deg RA of node: 357.6887 deg Eccentricity: 0.0012831 Arg of perigee: 029.4293 deg Mean anomaly: 330.7615 deg Mean motion: 14.27342755 rev/day Decay rate: -6.7e-07 rev/day^2 Epoch rev: 10380 Checksum: 326
/EX SB KEPS @ AMSAT $ORB07340.M Orbital Elements 07340.MISC
HR AMSAT ORBITAL ELEMENTS FOR MANNED AND MISCELLANEOUS SATELLITES FROM WA5QGD FORT WORTH,TX December 6, 2007 Send Subscribe/unsubscribe to KEPS at http://www.amsat.org/mailman/listinfo/keps BID: ORB07340.M TO ALL RADIO AMATEURS BT
Satellite: CAPE1 Catalog number: 31130 Epoch time: 07340.75008132 Element set: 180 Inclination: 098.0665 deg RA of node: 047.1296 deg Eccentricity: 0.0102254 Arg of perigee: 212.4505 deg Mean anomaly: 147.0377 deg Mean motion: 14.51909108 rev/day Decay rate: 1.1e-07 rev/day^2 Epoch rev: 3365 Checksum: 250
Satellite: MAST Catalog number: 31126 Epoch time: 07340.23693270 Element set: 200 Inclination: 098.0659 deg RA of node: 047.1791 deg Eccentricity: 0.0094385 Arg of perigee: 212.4124 deg Mean anomaly: 147.1278 deg Mean motion: 14.53381510 rev/day Decay rate: 4.7e-07 rev/day^2 Epoch rev: 3384 Checksum: 272
Satellite: FALCON Catalog number: 30776 Epoch time: 07340.85997362 Element set: 198 Inclination: 035.4340 deg RA of node: 245.8239 deg Eccentricity: 0.0000471 Arg of perigee: 205.2524 deg Mean anomaly: 154.8171 deg Mean motion: 15.02814786 rev/day Decay rate: 2.65e-06 rev/day^2 Epoch rev: 4104 Checksum: 288
Satellite: FCAL Catalog number: 29667 Epoch time: 07340.80930819 Element set: 561 Inclination: 051.6315 deg RA of node: 264.5066 deg Eccentricity: 0.0008221 Arg of perigee: 309.8557 deg Mean anomaly: 050.1659 deg Mean motion: 15.96035780 rev/day Decay rate: 2.7721e-04 rev/day^2 Epoch rev: 5549 Checksum: 313
Satellite: FCAL Catalog number: 29667 Epoch time: 07340.80930819 Element set: 561 Inclination: 051.6315 deg RA of node: 264.5066 deg Eccentricity: 0.0008221 Arg of perigee: 309.8557 deg Mean anomaly: 050.1659 deg Mean motion: 15.96035780 rev/day Decay rate: 2.7721e-04 rev/day^2 Epoch rev: 5549 Checksum: 313
Satellite: FCAL Catalog number: 29667 Epoch time: 07340.80930819 Element set: 561 Inclination: 051.6315 deg RA of node: 264.5066 deg Eccentricity: 0.0008221 Arg of perigee: 309.8557 deg Mean anomaly: 050.1659 deg Mean motion: 15.96035780 rev/day Decay rate: 2.7721e-04 rev/day^2 Epoch rev: 5549 Checksum: 313
